Location: Madison
(43.0730°N, 89.3819°W)
Time: 05:35:24
(UTC-05:00)

ISS - Visible Passes

Search period start: 26 March 2019 00:00
Search period end: 05 April 2019 00:00
Orbit: 408 x 411 km, 51.6° (Epoch: 26 March)

Date Brightness Start Highest point End Pass type
(mag) Time Alt. Az. Time Alt. Az. Time Alt. Az.
26 Mar -1.6 21:13:40 10° WNW 21:16:12 20° N 21:17:04 18° NNE visible
27 Mar -1.7 20:22:34 10° WNW 20:25:17 23° NNW 20:28:01 10° NE visible
27 Mar -0.8 22:00:15 10° NW 22:01:16 15° NNW 22:01:16 15° NNW visible
28 Mar -1.5 21:09:22 10° NW 21:11:45 18° N 21:12:39 16° NNE visible
29 Mar -1.5 20:18:22 10° NW 20:20:48 19° N 20:23:15 10° NE visible
29 Mar -1.0 21:55:27 10° NW 21:56:44 18° NNW 21:56:44 18° NNW visible
30 Mar -1.8 21:04:44 10° NW 21:07:16 20° N 21:08:02 18° NNE visible
31 Mar -1.5 20:13:54 10° NW 20:16:18 18° N 20:18:43 10° NE visible
31 Mar -1.5 21:50:28 10° NW 21:52:04 23° NNW 21:52:04 23° NNW visible
01 Apr -2.3 20:59:48 10° NW 21:02:41 26° NNE 21:03:20 25° NE visible
02 Apr -1.9 20:09:05 10° NW 20:11:44 22° NNE 20:14:23 10° ENE visible
02 Apr -2.0 21:45:26 10° NW 21:47:22 32° NW 21:47:22 32° NW visible
03 Apr -3.1 20:54:43 10° NW 20:57:56 44° NNE 20:58:39 37° ENE visible
04 Apr -2.5 20:04:02 10° NW 20:07:02 31° NNE 20:09:58 10° E visible
04 Apr -2.3 21:40:31 10° WNW 21:42:44 34° W 21:42:44 34° W visible
